PRAETORIAN SDA_617

Last updated on Wed Aug 19 2026 00:03:42 GMT+0000 (Coordinated Universal Time)

1 65580U 25203R 26229.92627141 .00000047 00000+0 32140-4 0 9993 2 65580 81.3059 313.8407 0007820 32.7377 327.4262 13.83154938 47220
UTC large
Height (km)
Speed (km/s)
/
Latitude / Longitude
Inclination (degrees)
Orbital Period (minutes)
Azimuth
Elevation
Range (km)
Doppler Factor

Next 0 passes for location: London (51.5072 / 0.1276)

No passes found over London.
PRAETORIAN SDA_617